[[{"header":{"parameterUnit":"m.s-1","parameterCategory":1,"la1":30.2992,"la2":30.254,"lo1":-89.0895,"lo2":-89.0443,"dy":0.0025,"dx":0.0025,"nx":19,"ny":19,"refTime":"2026-04-07T03:00:00:Z","depth":0,"parameterNumber":2,"parameterNumberName":"U-component_of_WINDS"},"data":[0,0,0,-1.5488,-1.549,-1.5601,-1.5602,-1.5767,-1.5769,0,0,0,0,0,0,0,0,0,0,0,-1.5469,-1.547,-1.5487,-1.5491,-1.5601,-1.5602,-1.5767,-1.5769,0,0,0,0,0,0,0,0,0,0,0,-1.5468,-1.547,-1.5472,-1.5491,-1.5601,-1.5602,-1.5767,-1.5675,0,0,0,0,0,0,0,0,0,0,-1.5563,-1.5559,-1.5469,-1.5472,-1.5492,-1.5601,-1.5602,-1.567,-1.5681,-1.5727,0,-1.5772,0,-1.5773,-1.5782,-1.5782,0,0,0,-1.5481,-1.5551,-1.5567,-1.5472,-1.5493,-1.5601,-1.5548,-1.5676,-1.5688,-1.5742,-1.5774,-1.578,-1.5776,-1.5783,-1.5784,-1.6086,-1.6088,0,0,-1.5474,-1.5497,-1.5559,-1.5576,-1.5559,-1.5545,-1.5552,-1.5682,-1.572,-1.5775,-1.5783,-1.5779,-1.5784,-1.5786,-1.6084,-1.6086,0,0,0,-1.5464,-1.5493,-1.5506,-1.557,-1.5588,-1.5548,-1.5557,-1.5714,-1.5716,-1.5785,-1.5781,-1.5785,-1.5788,-1.6082,-1.6085,-1.6202,0,0,0,-1.5459,-1.5486,-1.5504,-1.5519,-1.5586,-1.5652,-1.5586,-1.5707,-1.5721,-1.578,-1.5785,-1.5789,-1.608,-1.6083,-1.6194,-1.6255,0,0,0,-1.5457,-1.5486,-1.5507,-1.552,-1.5568,-1.565,-1.5659,-1.571,-1.572,-1.5782,-1.579,-1.6078,-1.6083,-1.6187,-1.6244,-1.6344,0,0,0,-1.5461,-1.5609,-1.5509,-1.5672,-1.5567,-1.5719,-1.5658,-1.577,-1.5838,-1.5786,-1.608,-1.6085,-1.6185,-1.6237,-1.6337,-1.6435,-1.6477,0,0,-1.566,-1.5633,-1.5727,-1.5641,-1.5818,-1.5701,-1.5894,-1.5935,-1.592,-1.6032,-1.6039,-1.6197,-1.6243,-1.6342,-1.6696,-1.673,0,0,0,-1.5798,-1.5867,-1.5908,-1.5973,-1.6007,-1.6042,-1.605,-1.6065,-1.6158,-1.5982,-1.6256,-1.6283,-1.6341,-1.6387,-1.6416,-1.6465,-1.6106,-1.6105,-1.6105,-1.6116,-1.6088,-1.6243,-1.6228,-1.6292,-1.6298,-1.6347,-1.6368,-1.6322,-1.6387,-1.6422,-1.664,-1.6695,-1.6716,-1.6768,-1.6467,-1.6468,-1.6468,-1.6469,-1.6409,-1.6504,-1.6436,-1.6562,-1.6532,-1.6638,-1.6648,-1.6611,-1.6707,-1.6611,-1.6661,-1.6564,-1.6754,-1.6798,-1.6477,-1.6476,-1.6475,-1.6474,-1.6473,-1.6619,-1.6659,-1.6673,-1.6763,-1.6836,-1.6814,-1.6909,-1.6876,-1.6847,-1.6895,-1.693,-1.6928,-1.6926,-1.6912,-1.6913,-1.6914,-1.6915,-1.6915,-1.6916,-1.6833,-1.6844,-1.6928,-1.6974,-1.7011,-1.7056,-1.7061,-1.7097,-1.7129,-1.7098,-1.7099,-1.7048,-1.6775,-1.6711,-1.6928,-1.6925,-1.6924,-1.6923,-1.6922,-1.715,-1.7072,-1.7202,-1.7239,-1.7291,-1.7366,-1.7321,-1.7397,-1.7421,-1.7469,-1.7406,-1.7208,-1.7179,-1.7157,-1.7103,-1.7409,-1.7409,-1.7409,-1.7409,-1.7331,-1.7311,-1.7436,-1.7498,-1.7554,-1.7526,-1.7675,-1.7679,-1.7672,-1.7685,-1.7635,-1.7559,-1.7537,-1.7522,-1.7491,-1.7441,-1.7825,-1.7826,-1.7826,-1.7527,-1.751,-1.7644,-1.7634,-1.7671,-1.7704,-1.7843,-1.7917,-1.7892,-1.7842,-1.7696,-1.7679,-1.7556,-1.7516,-1.747,-1.7423,-1.733,0,0]},{"header":{"parameterUnit":"m.s-1","parameterCategory":1,"la1":30.2992,"la2":30.254,"lo1":-89.0895,"lo2":-89.0443,"dy":0.0025,"dx":0.0025,"nx":19,"ny":19,"refTime":"2026-04-07T03:00:00:Z","depth":0,"parameterNumber":3,"parameterNumberName":"V-component_of_WINDS"},"data":[0,0,0,-6.9371,-6.9376,-6.9592,-6.9592,-6.9889,-6.9892,0,0,0,0,0,0,0,0,0,0,0,-6.9323,-6.9326,-6.937,-6.9376,-6.9591,-6.9592,-6.9889,-6.9892,0,0,0,0,0,0,0,0,0,0,0,-6.9322,-6.9325,-6.9329,-6.9377,-6.9591,-6.9592,-6.9888,-6.9717,0,0,0,0,0,0,0,0,0,0,-6.9503,-6.9477,-6.9325,-6.9329,-6.9378,-6.9591,-6.9592,-6.9708,-6.9727,-6.9802,0,-6.9875,0,-6.9889,-6.9914,-6.9915,0,0,0,-6.9363,-6.9461,-6.9504,-6.9329,-6.9381,-6.9591,-6.9491,-6.9719,-6.9741,-6.9827,-6.9879,-6.989,-6.9894,-6.9916,-6.9917,-7.0398,-7.0401,0,0,-6.9351,-6.937,-6.949,-6.952,-6.9492,-6.9484,-6.9497,-6.9731,-6.9788,-6.988,-6.9896,-6.9899,-6.9918,-6.992,-7.0395,-7.0399,0,0,0,-6.9326,-6.9363,-6.94,-6.9508,-6.9546,-6.949,-6.9506,-6.9777,-6.9788,-6.9899,-6.9902,-6.992,-6.9924,-7.0392,-7.0397,-7.056,0,0,0,-6.9318,-6.9348,-6.9395,-6.9409,-6.9542,-6.9665,-6.9547,-6.9772,-6.9798,-6.9901,-6.992,-6.9927,-7.0389,-7.0394,-7.0549,-7.0634,0,0,0,-6.9303,-6.9346,-6.9383,-6.941,-6.9504,-6.9661,-6.9685,-6.9777,-6.9801,-6.9915,-6.9928,-7.0387,-7.0393,-7.0539,-7.0617,-7.0767,0,0,0,-6.9293,-6.9523,-6.9386,-6.9644,-6.9502,-6.9761,-6.9683,-6.9874,-6.9991,-6.9921,-7.0389,-7.0396,-7.0535,-7.0607,-7.0757,-7.0899,-7.096,0,0,-6.9594,-6.956,-6.971,-6.9594,-6.9883,-6.9726,-7.0038,-7.0125,-7.0116,-7.0303,-7.0315,-7.0552,-7.0616,-7.0765,-7.129,-7.1339,0,0,0,-6.9812,-6.9921,-6.9993,-7.0108,-7.0182,-7.0252,-7.029,-7.0322,-7.0481,-7.0218,-7.0645,-7.0683,-7.0769,-7.0836,-7.0878,-7.0951,-7.0428,-7.0427,-7.0426,-7.0267,-7.0246,-7.0493,-7.0498,-7.0609,-7.0646,-7.0734,-7.0782,-7.0726,-7.0827,-7.0883,-7.1205,-7.1284,-7.1315,-7.1392,-7.0955,-7.0955,-7.0956,-7.0956,-7.0708,-7.0859,-7.0779,-7.0991,-7.0965,-7.1141,-7.1184,-7.1138,-7.1296,-7.1161,-7.1236,-7.1091,-7.1369,-7.1435,-7.0969,-7.0966,-7.0965,-7.0964,-7.0963,-7.1005,-7.1074,-7.111,-7.1274,-7.1401,-7.1395,-7.1552,-7.1521,-7.1493,-7.1567,-7.1624,-7.1621,-7.1615,-7.1596,-7.1597,-7.1598,-7.1599,-7.16,-7.1601,-7.13,-7.1336,-7.1474,-7.1572,-7.1641,-7.1728,-7.1767,-7.1833,-7.1898,-7.1863,-7.1863,-7.1797,-7.14,-7.1302,-7.1618,-7.1615,-7.1613,-7.1611,-7.161,-7.1758,-7.165,-7.1863,-7.1933,-7.2045,-7.2173,-7.2132,-7.2269,-7.2319,-7.2397,-7.2314,-7.2025,-7.1987,-7.1954,-7.1873,-7.2317,-7.2317,-7.2317,-7.2317,-7.201,-7.1988,-7.2199,-7.2313,-7.242,-7.2405,-7.2643,-7.2674,-7.2688,-7.2717,-7.2647,-7.2536,-7.2504,-7.2485,-7.244,-7.2364,-7.2924,-7.2925,-7.2925,-7.2291,-7.2278,-7.249,-7.2505,-7.259,-7.2662,-7.2885,-7.3016,-7.3008,-7.2949,-7.2739,-7.2713,-7.2533,-7.2476,-7.2414,-7.2345,-7.2204,0,0]}]]